Lid_Strength_Index
4 4 4 4 3 3 3 3 3 4 4 3 3 3 2 2 2 2 2 2 3 3 3 3 3 3 6 7 9 8 10 9 9 14 14 14 14 13 13 14 13 12 12
4 4 4 4 4 4 4 4 4 4 3 2 2 2 2 2 2 2 3 3 3 4 4 5 5 6 6 7 8 9 9 11 13 15 15 15 14 13 14 14 14 12 13
7 6 7 6 6 6 5 5 4 4 3 3 3 3 3 3 3 4 4 4 5 5 4 6 5 6 8 9 10 10 10 12 12 14 15 15 14 14 15 14 15 14 13
11 10 10 9 9 9 8 7 7 6 6 5 5 5 6 6 6 6 6 6 6 6 6 6 6 8 7 9 10 9 10 12 14 14 15 15 15 15 15 15 16 15 15
11 10 10 10 10 10 10 10 7 7 6 6 7 8 9 8 8 8 8 7 8 7 8 8 9 10 10 10 10 11 12 13 12 14 15 15 16 16 16 15 15 15 15
10 10 11 11 11 12 12 12 12 10 10 10 10 10 11 10 9 8 8 7 8 9 9 10 10 12 11 9 9 10 10 12 13 13 15 15 15 15 15 15 15 17 17
12 12 13 13 12 12 13 12 12 13 13 13 12 11 10 9 9 9 9 10 9 9 10 11 12 12 13 12 10 10 10 10 11 13 14 15 14 14 14 15 15 16 16
13 13 13 13 13 13 13 13 13 14 13 13 12 11 11 11 9 9 10 10 10 10 11 11 12 12 12 13 12 13 13 13 12 13 14 14 14 14 14 14 14 16 16
14 14 14 14 16 15 17 16 14 14 13 13 12 12 13 12 10 10 10 12 12 12 12 12 12 12 12 11 13 13 13 13 11 12 12 13 12 11 13 15 17 17 20
14 14 14 15 16 16 16 16 17 14 13 13 13 13 13 13 11 11 10 13 13 13 13 13 13 12 11 11 13 13 14 14 14 14 13 12 12 12 12 13 15 16 18
15 16 16 16 16 16 17 17 14 13 13 13 13 13 13 13 13 11 10 12 13 13 13 13 13 11 11 10 11 13 13 13 12 13 14 14 14 14 13 14 14 14 16
16 15 15 14 14 14 16 13 13 13 13 13 13 13 14 14 12 11 10 10 10 12 13 13 13 11 11 10 11 11 11 13 14 14 14 14 14 14 13 13 14 14 14
15 15 14 15 14 14 13 13 13 13 13 14 14 15 17 16 14 12 11 11 10 11 13 13 12 11 11 11 10 10 12 13 14 14 15 15 14 13 14 15 13 13 14
16 16 16 15 15 16 17 14 14 15 17 15 15 15 14 17 17 16 15 14 13 12 11 12 12 12 11 11 12 11 12 12 13 14 14 14 15 15 15 13 14 14 15
15 16 16 19 19 19 19 19 18 19 17 19 20 19 15 15 17 12 13 14 12 12 12 13 13 14 14 14 13 13 12 13 13 13 14 15 15 14 14 14 14 14 15
17 18 19 19 20 19 18 18 12 12 12 12 12 15 19 13 11 11 11 10 10 10 12 14 14 14 14 15 14 13 13 12 12 12 12 13 13 13 14 13 13 13 14
16 18 18 17 16 16 19 19 18 19 13 13 13 13 12 12 12 12 11 11 11 12 13 13 14 14 13 14 14 14 14 13 12 12 12 12 12 12 13 13 13 14 14
16 15 15 16 18 19 18 18 18 18 19 23 17 14 13 13 12 12 12 13 15 13 14 14 13 13 13 13 13 14 14 14 13 13 12 12 12 12 13 13 13 13 14
16 16 17 18 16 18 23 20 19 19 20 21 26 19 20 15 15 15 15 23 20 17 15 14 14 13 13 13 12 12 13 13 13 13 13 13 12 12 12 12 12 12 12
16 16 18 22 23 24 24 25 21 21 26 27 26 26 26 25 26 26 20 23 21 20 19 19 18 17 16 15 15 13 12 12 12 12 12 12 12 12 12 12 11 12 12
25 26 24 25 26 25 29 26 28 28 28 29 27 26 18 30 31 31 29 26 27 26 24 23 21 21 19 18 18 18 17 17 16 14 12 11 11 11 11 12 12 12 12
29 29 24 25 27 27 29 28 29 28 27 27 28 27 21 30 32 31 31 30 29 29 28 28 26 26 26 22 21 21 20 19 18 17 16 15 14 14 15 14 14 13 13
27 24 25 26 26 26 27 30 29 30 29 30 31 29 30 32 32 31 32 32 31 31 30 31 30 28 28 27 26 24 22 22 20 19 19 18 16 15 14 14 14 14 14
25 25 25 26 25 25 25 25 27 29 29 28 30 31 30 31 32 31 29 30 30 31 31 31 30 28 29 29 27 26 24 24 23 21 21 19 18 17 16 15 14 14 14
26 26 25 25 26 26 26 27 27 30 32 31 30 31 32 32 32 33 33 33 32 32 29 28 28 28 28 29 28 27 27 24 25 23 20 19 19 18 17 15 14 15 15
26 26 27 27 27 27 28 27 28 28 28 28 29 32 32 31 32 33 32 31 30 30 30 29 29 28 28 27 27 25 23 19 18 17 17 17 17 16 17 17 17 18 18